TimeAKDT,TemperatureF,Dew PointF,Humidity,Sea Level PressureIn,VisibilityMPH,Wind Direction,Wind SpeedMPH,Gust SpeedMPH,PrecipitationIn,Events,Conditions,WindDirDegrees,DateUTC
12:42 AM,46.4,42.8,87,30.20,10.0,East,12.7,-,N/A,,Overcast,100,2012-10-02 08:42:00
12:53 AM,46.9,42.1,83,30.21,10.0,East,15.0,19.6,N/A,,Overcast,90,2012-10-02 08:53:00
1:53 AM,46.9,42.1,83,30.19,10.0,East,16.1,24.2,N/A,,Overcast,90,2012-10-02 09:53:00
2:53 AM,46.9,42.1,83,30.18,10.0,East,18.4,26.5,N/A,,Partly Cloudy,90,2012-10-02 10:53:00
3:53 AM,46.9,42.1,83,30.18,10.0,East,18.4,26.5,N/A,,Mostly Cloudy,90,2012-10-02 11:53:00
4:53 AM,46.9,41.0,80,30.16,10.0,East,17.3,29.9,N/A,,Mostly Cloudy,100,2012-10-02 12:53:00
5:53 AM,48.0,39.9,74,30.16,10.0,ESE,19.6,25.3,N/A,,Overcast,120,2012-10-02 13:53:00
6:53 AM,48.0,39.0,71,30.14,10.0,ESE,21.9,32.2,N/A,,Overcast,120,2012-10-02 14:53:00
7:53 AM,46.9,39.9,77,30.13,10.0,ESE,20.7,31.1,N/A,,Overcast,110,2012-10-02 15:53:00
8:53 AM,46.0,39.9,79,30.13,10.0,East,15.0,24.2,N/A,,Overcast,100,2012-10-02 16:53:00
9:53 AM,46.9,37.9,71,30.12,10.0,ESE,20.7,27.6,N/A,,Overcast,110,2012-10-02 17:53:00
10:53 AM,46.9,37.9,71,30.10,10.0,ESE,19.6,36.8,N/A,,Overcast,110,2012-10-02 18:53:00
11:53 AM,48.0,39.0,71,30.10,10.0,ESE,25.3,39.1,N/A,,Mostly Cloudy,120,2012-10-02 19:53:00
12:53 PM,46.9,39.0,74,30.11,10.0,ESE,24.2,39.1,N/A,,Overcast,120,2012-10-02 20:53:00
1:53 PM,46.0,39.0,76,30.11,10.0,East,17.3,27.6,0.00,Rain,Light Rain,100,2012-10-02 21:53:00
2:53 PM,46.9,39.0,74,30.10,10.0,ESE,21.9,29.9,0.00,Rain,Light Rain,120,2012-10-02 22:53:00
3:53 PM,46.0,39.9,79,30.08,10.0,East,19.6,25.3,0.00,Rain,Light Rain,100,2012-10-02 23:53:00
4:53 PM,46.0,39.9,79,30.08,10.0,East,16.1,27.6,0.00,Rain,Light Rain,100,2012-10-03 00:53:00
5:53 PM,45.0,39.9,82,30.08,10.0,East,19.6,26.5,0.00,Rain,Light Rain,80,2012-10-03 01:53:00
6:53 PM,44.1,39.9,85,30.09,10.0,East,16.1,25.3,0.00,Rain,Light Rain,80,2012-10-03 02:53:00
7:53 PM,44.1,39.0,82,30.10,10.0,East,17.3,26.5,0.00,Rain,Light Rain,90,2012-10-03 03:53:00
8:53 PM,45.0,39.0,80,30.09,10.0,East,20.7,28.8,0.00,Rain,Light Rain,90,2012-10-03 04:53:00
9:48 PM,44.6,39.2,81,30.09,10.0,East,18.4,25.3,0.00,,Overcast,90,2012-10-03 05:48:00
9:53 PM,45.0,39.0,80,30.10,10.0,East,16.1,25.3,0.00,,Overcast,90,2012-10-03 05:53:00
10:53 PM,45.0,39.9,82,30.11,10.0,East,17.3,25.3,N/A,,Overcast,90,2012-10-03 06:53:00
11:53 PM,45.0,39.0,80,30.12,10.0,East,20.7,-,N/A,,Overcast,90,2012-10-03 07:53:00